{"data":{"norad_id":56884,"epoch":"2026-09-19T22:41:17.651616Z","epoch_age_seconds":165739,"freshness":"FRESH","line1":"1 56884U 23083J   26262.94534319  .00000655  00000+0  33326-4 0  9999","line2":"2 56884  43.0015  67.7681 0001544 253.8051 106.2631 15.27576410181343","mean_motion":15.2757641,"eccentricity":0.0001544,"inclination_deg":43.0015,"raan_deg":67.7681,"arg_perigee_deg":253.8051,"mean_anomaly_deg":106.2631,"bstar":3.3326e-5,"rev_number":18134,"period_min":94.266970252572,"perigee_km":482.00047701921,"apogee_km":484.11921460519,"semimajor_km":6861.1968458122,"source":"CELESTRAK","updated_at":"2026-09-21T09:00:33.520941Z"}}